Regional Weather Roundup
Issued by NWS

Home | Current Version | Previous Version | Graphics & Text | Print | Product List | Glossary On
Versions: 1 2 3 4 5 6 7 8 9 10 11 12 13 14 15 16 17 18 19 20 21 22 23 24 25 26 27 28 29 30 31 32 33 34 35 36 37 38 39 40 41 42 43 44 45 46 47 48 49 50
000
ASUS44 KMEG 220400
RWRTN
TENNESSEE HOURLY STATE WEATHER ROUNDUP
NATIONAL WEATHER SERVICE MEMPHIS TN
1100 PM CDT THU SEP 21 2017

TNZ002-004-019-021-049-052-054-088>092-220500-
WEST TENNESSEE

CITY           SKY/WX    TMP DP  RH WIND       PRES   REMARKS
MEMPHIS INTL   PTCLDY    82  70  66 E5        30.02R
NWS MEMPHIS      N/A     78 N/A N/A MISG        N/A
JACKSON        CLEAR     74  72  93 CALM      30.04R
DYERSBURG      CLEAR     75  72  90 CALM      30.03S
$$

TNZ008-025-027-028-033-062-065-066-220500-
NORTH MIDDLE TENNESSEE

CITY           SKY/WX    TMP DP  RH WIND       PRES   REMARKS
NASHVILLE      CLEAR     73  70  90 CALM      30.06S
CLARKSVILLE    CLEAR     71  69  93 CALM      30.05R
SMYRNA           N/A    N/A N/A N/A MISG        N/A
CROSSVILLE     CLEAR     65  63  93 CALM      30.13S
$$

TNZ061-075-076-078-094-096-097-220500-
SOUTH MIDDLE TENNESSEE

CITY           SKY/WX    TMP DP  RH WIND       PRES   REMARKS
MCMINNVILLE    CLEAR     68  68 100 N3        30.08S
$$

TNZ017-018-042-046-047-220500-
NORTHEAST TENNESSEE

CITY           SKY/WX    TMP DP  RH WIND       PRES   REMARKS
TRI CITIES     CLEAR     67  64  90 CALM      30.12R
$$

TNZ012-013-036-069-073-074-220500-
CENTRAL EAST TENNESSEE

CITY           SKY/WX    TMP DP  RH WIND       PRES   REMARKS
KNOXVILLE      CLEAR     70  63  78 CALM      30.07R
OAK RIDGE      CLEAR     70  66  87 CALM      30.09S
GATLINBURG     CLEAR     66  63  88 CALM      30.07F
$$

TNZ083-085-099-220500-
SOUTHEAST TENNESSEE

CITY           SKY/WX    TMP DP  RH WIND       PRES   REMARKS
CHATTANOOGA    CLEAR     71  68  90 CALM      30.05F
$$

SKY/WX REPORTED AS FAIR MEANS FEW OR NO CLOUDS BELOW
12 THOUSAND FEET.





USA.gov is the U.S. government's official web portal to all federal, state and local government web resources and services.